Weather History for Indianapolis, IN

Change the Weather History Date:

Monday, February 11, 2013

  Actual Average (KEYE) Record (KEYE)
Temperature  
Mean Temperature 41 °F 31 °F  
Max Temperature 51 °F 39 °F 73 °F (1999)
Min Temperature 31 °F 23 °F -10 °F (2014)
Degree Days  
Heating Degree Days 24 34  
Month to date heating degree days 387  
Since 1 July heating degree days 3588  
Cooling Degree Days 0 0  
Month to date cooling degree days 0  
Year to date cooling degree days 0  
Moisture  
Dew Point 29 °F    
Average Humidity 68    
Maximum Humidity 85    
Minimum Humidity 55    
Precipitation  
Precipitation 0.00 in 0.08 in 2.61 in (2009)
Month to date precipitation 0.75  
Year to date precipitation 2.96  
Sea Level Pressure  
Sea Level Pressure 29.87 in    
Wind  
Wind Speed 17 mph (WSW)    
Max Wind Speed 28 mph    
Max Gust Speed 39 mph    
Visibility 10 miles    
Events      
T = Trace of Precipitation, MM = Missing Value Source: NWS Daily Summary

Daily Weather History Graph

Daily Weather History Graph

Search for Another Location

Airport:

Trip Planner

Search our weather history database for the weather conditions in past years. The results will help you decide how hot, cold, wet, or windy it might be!

Date:

Astronomy

Feb. 11, 2013 Rise Set
Actual Time 7:42 AM EST 6:16 PM EST
Civil Twilight 7:14 AM EST 6:44 PM EST
Nautical Twilight 6:42 AM EST 7:16 PM EST
Astronomical Twilight 6:11 AM EST 7:47 PM EST
Moon 8:06 AM EST (2/11) 8:12 PM EST (2/11)
Length of Visible Light 11h 29m
Length of Day
10h 33m
Waxing Crescent, 3% of the Moon is Illuminated
Feb 11
Waxing Crescent
Feb 17
First Quarter
Feb 25
Full
Mar 4
Last Quarter
Mar 11
New

Hourly Weather History & Observations

Time (EST) Temp. Windchill Dew Point Humidity Pressure Visibility Wind Dir Wind Speed Gust Speed Precip Events Conditions
12:15 AM 50.4 °F - 45.9 °F 85% 29.69 in 10.0 mi SSW 13.8 mph - N/A   Overcast
12:35 AM 50.9 °F - 46.0 °F 83% 29.69 in 10.0 mi SSW 13.8 mph 19.6 mph N/A   Overcast
12:55 AM 51.3 °F - 45.9 °F 82% 29.69 in 10.0 mi SSW 13.8 mph - N/A   Overcast
1:15 AM 51.3 °F - 45.5 °F 81% 29.69 in 10.0 mi SSW 16.1 mph 23.0 mph N/A   Mostly Cloudy
1:35 AM 50.9 °F - 45.0 °F 80% 29.69 in 10.0 mi SSW 13.8 mph 21.9 mph N/A   Mostly Cloudy
1:55 AM 50.5 °F - 45.1 °F 82% 29.69 in 10.0 mi SSW 16.1 mph 20.7 mph N/A   Scattered Clouds
2:15 AM 50.7 °F - 44.6 °F 80% 29.69 in 10.0 mi SSW 17.3 mph 23.0 mph N/A   Scattered Clouds
2:35 AM 50.4 °F - 43.7 °F 78% 29.69 in 10.0 mi SW 18.4 mph 24.2 mph N/A   Clear
2:55 AM 50.0 °F - 43.0 °F 77% 29.69 in 10.0 mi SW 18.4 mph 25.3 mph N/A   Clear
3:15 AM 49.5 °F - 42.3 °F 76% 29.69 in 10.0 mi SW 18.4 mph 25.3 mph N/A   Clear
3:35 AM 49.3 °F - 40.3 °F 71% 29.69 in 10.0 mi SW 25.3 mph 31.1 mph N/A   Scattered Clouds
3:55 AM 49.3 °F - 36.5 °F 61% 29.69 in 10.0 mi WSW 21.9 mph 39.1 mph N/A   Clear
4:15 AM 47.8 °F - 32.5 °F 55% 29.69 in 10.0 mi WSW 20.7 mph 31.1 mph N/A   Clear
4:35 AM 46.9 °F - 32.0 °F 56% 29.70 in 10.0 mi WSW 16.1 mph 32.2 mph N/A   Clear
4:55 AM 43.7 °F 34.7 °F 31.6 °F 63% 29.73 in 10.0 mi West 23.0 mph 39.1 mph N/A   Scattered Clouds
5:15 AM 41.7 °F 32.6 °F 30.9 °F 66% 29.74 in 10.0 mi West 20.7 mph 32.2 mph N/A   Clear
5:35 AM 41.0 °F 30.9 °F 28.9 °F 62% 29.75 in 10.0 mi WSW 24.2 mph 31.1 mph N/A   Scattered Clouds
5:55 AM 40.3 °F 30.7 °F 28.9 °F 64% 29.76 in 10.0 mi WSW 20.7 mph 29.9 mph N/A   Mostly Cloudy
6:15 AM 39.7 °F 30.6 °F 28.4 °F 64% 29.77 in 10.0 mi WSW 18.4 mph 27.6 mph N/A   Scattered Clouds
6:55 AM 39.4 °F 29.8 °F 28.9 °F 66% 29.78 in 10.0 mi WSW 19.6 mph 27.6 mph N/A   Overcast
7:15 AM 38.3 °F 27.3 °F 27.9 °F 66% 29.79 in 10.0 mi WSW 24.2 mph 34.5 mph N/A   Overcast
7:35 AM 37.4 °F 26.6 °F 27.0 °F 66% 29.80 in 10.0 mi WSW 21.9 mph 32.2 mph N/A   Overcast
7:55 AM 37.4 °F 27.5 °F 25.5 °F 62% 29.81 in 10.0 mi WSW 18.4 mph 35.7 mph N/A   Overcast
8:15 AM 37.2 °F 26.1 °F 25.0 °F 61% 29.82 in 10.0 mi WSW 23.0 mph 35.7 mph N/A   Overcast
8:35 AM 37.4 °F 26.4 °F 25.2 °F 61% 29.83 in 10.0 mi WSW 23.0 mph 29.9 mph N/A   Overcast
8:55 AM 37.4 °F 27.2 °F 25.3 °F 62% 29.83 in 10.0 mi WSW 19.6 mph 31.1 mph N/A   Overcast
9:15 AM 37.0 °F 26.7 °F 25.7 °F 64% 29.84 in 10.0 mi WSW 19.6 mph 26.5 mph N/A   Overcast
9:35 AM 36.1 °F 25.0 °F 25.0 °F 64% 29.85 in 10.0 mi WSW 21.9 mph 39.1 mph N/A   Overcast
9:55 AM 35.8 °F 23.4 °F 23.7 °F 62% 29.86 in 10.0 mi WSW 26.5 mph 35.7 mph N/A   Overcast
10:15 AM 35.6 °F 25.2 °F 23.7 °F 62% 29.87 in 10.0 mi WSW 18.4 mph 31.1 mph N/A   Overcast
10:35 AM 35.6 °F 23.4 °F 23.4 °F 61% 29.87 in 10.0 mi West 25.3 mph 34.5 mph N/A   Overcast
10:55 AM 35.6 °F 23.0 °F 23.2 °F 61% 29.88 in 10.0 mi WSW 27.6 mph 38.0 mph N/A   Overcast
11:15 AM 35.6 °F 24.8 °F 23.9 °F 62% 29.89 in 10.0 mi WSW 19.6 mph 33.4 mph N/A   Overcast
11:35 AM 35.6 °F 24.8 °F 24.3 °F 63% 29.90 in 10.0 mi West 19.6 mph 31.1 mph N/A   Overcast
11:55 AM 35.8 °F 24.8 °F 24.6 °F 64% 29.91 in 10.0 mi WSW 20.7 mph 27.6 mph N/A   Overcast
12:15 PM 35.6 °F 24.5 °F 25.3 °F 66% 29.91 in 10.0 mi West 20.7 mph 29.9 mph N/A   Overcast
12:35 PM 35.2 °F 23.8 °F 24.6 °F 65% 29.91 in 10.0 mi West 21.9 mph 36.8 mph N/A   Overcast
12:55 PM 35.8 °F 23.9 °F 24.1 °F 62% 29.91 in 10.0 mi West 24.2 mph 33.4 mph N/A   Overcast
1:15 PM 36.0 °F 24.4 °F 23.9 °F 62% 29.92 in 10.0 mi West 23.0 mph 32.2 mph N/A   Overcast
1:35 PM 35.6 °F 25.5 °F 23.9 °F 62% 29.91 in 10.0 mi West 17.3 mph 33.4 mph N/A   Overcast
1:55 PM 36.0 °F 24.4 °F 25.0 °F 64% 29.91 in 10.0 mi WSW 23.0 mph 33.4 mph N/A   Overcast
2:15 PM 35.6 °F 23.7 °F 24.1 °F 63% 29.91 in 10.0 mi WSW 24.2 mph 35.7 mph N/A   Overcast
2:35 PM 35.8 °F 24.5 °F 24.4 °F 63% 29.92 in 10.0 mi WSW 21.9 mph 29.9 mph N/A   Overcast
2:55 PM 36.0 °F 25.6 °F 24.4 °F 63% 29.92 in 10.0 mi WSW 18.4 mph 31.1 mph N/A   Overcast
3:15 PM 35.8 °F 23.7 °F 23.9 °F 62% 29.94 in 10.0 mi WSW 25.3 mph 36.8 mph N/A   Overcast
3:35 PM 36.0 °F 23.9 °F 24.3 °F 63% 29.94 in 10.0 mi WSW 25.3 mph 31.1 mph N/A   Overcast
3:55 PM 36.1 °F 25.9 °F 24.8 °F 63% 29.95 in 10.0 mi WSW 18.4 mph 29.9 mph N/A   Overcast
4:15 PM 36.5 °F 27.4 °F 24.8 °F 63% 29.95 in 10.0 mi WSW 15.0 mph 27.6 mph N/A   Overcast
4:35 PM 36.5 °F 27.4 °F 25.3 °F 64% 29.96 in 10.0 mi WSW 15.0 mph 27.6 mph N/A   Overcast
4:55 PM 36.7 °F 27.2 °F 25.7 °F 64% 29.96 in 10.0 mi WSW 16.1 mph 24.2 mph N/A   Overcast
5:55 PM 37.6 °F 27.7 °F 27.1 °F 66% 29.97 in 10.0 mi West 18.4 mph 25.3 mph N/A   Overcast
6:15 PM 37.4 °F 29.3 °F 26.1 °F 64% 29.97 in 10.0 mi West 12.7 mph 21.9 mph N/A   Overcast
6:35 PM 36.5 °F 28.2 °F 25.7 °F 65% 29.97 in 10.0 mi West 12.7 mph - N/A   Mostly Cloudy
6:55 PM 36.5 °F 29.7 °F 26.2 °F 66% 29.98 in 10.0 mi West 9.2 mph - N/A   Mostly Cloudy
7:15 PM 36.5 °F 29.2 °F 26.4 °F 67% 29.99 in 10.0 mi West 10.4 mph - N/A   Overcast
7:35 PM 36.0 °F 27.5 °F 26.1 °F 67% 29.99 in 10.0 mi West 12.7 mph 16.1 mph N/A   Mostly Cloudy
7:55 PM 35.8 °F 26.9 °F 25.7 °F 67% 30.00 in 10.0 mi West 13.8 mph 20.7 mph N/A   Scattered Clouds
8:15 PM 35.4 °F 27.8 °F 25.5 °F 67% 30.01 in 10.0 mi West 10.4 mph - N/A   Mostly Cloudy
8:35 PM 35.2 °F 28.1 °F 25.5 °F 68% 30.02 in 10.0 mi West 9.2 mph - N/A   Mostly Cloudy
8:55 PM 34.2 °F 26.8 °F 25.7 °F 71% 30.02 in 10.0 mi West 9.2 mph - N/A   Scattered Clouds
9:15 PM 33.3 °F 27.9 °F 25.7 °F 74% 30.02 in 10.0 mi WNW 5.8 mph - N/A   Clear
9:35 PM 32.5 °F 27.1 °F 26.2 °F 78% 30.03 in 10.0 mi NW 5.8 mph - N/A   Scattered Clouds
9:55 PM 32.0 °F 27.5 °F 25.7 °F 78% 30.03 in 10.0 mi WNW 4.6 mph - N/A   Clear
10:15 PM 31.6 °F 27.0 °F 25.7 °F 79% 30.03 in 10.0 mi WNW 4.6 mph - N/A   Clear
10:35 PM 32.0 °F 24.8 °F 25.5 °F 77% 30.03 in 10.0 mi WNW 8.1 mph - N/A   Clear
10:55 PM 32.0 °F 23.6 °F 25.3 °F 76% 30.03 in 10.0 mi West 10.4 mph - N/A   Clear
11:15 PM 32.0 °F 23.6 °F 24.8 °F 75% 30.04 in 10.0 mi West 10.4 mph 17.3 mph N/A   Clear
11:35 PM 31.8 °F 22.8 °F 24.8 °F 75% 30.04 in 10.0 mi West 11.5 mph 17.3 mph N/A   Clear
11:55 PM 31.5 °F 22.9 °F 24.6 °F 76% 30.04 in 10.0 mi West 10.4 mph 18.4 mph N/A   Clear